Weather History for Lorain / Elyria, OH

Change the Weather History Date:

Monday, December 31, 2012

  Actual Average (KCLE) Record (KCLE)
Temperature  
Mean Temperature 29 °F 29 °F  
Max Temperature 35 °F 35 °F 68 °F (1875)
Min Temperature 23 °F 23 °F -11 °F (1976)
Degree Days  
Heating Degree Days 36 36  
Month to date heating degree days 1011  
Since 1 July heating degree days 2107  
Cooling Degree Days 0 0  
Month to date cooling degree days 0  
Year to date cooling degree days 817  
Moisture  
Dew Point 25 °F    
Average Humidity 80    
Maximum Humidity 93    
Minimum Humidity 61    
Precipitation  
Precipitation 0.02 in 0.10 in 0.63 in (1978)
Month to date precipitation 3.10  
Year to date precipitation 39.14  
Snow  
Snow 0.00 in 0.60 in - ()
Month to date snowfall 14.1  
Since 1 July snowfall 18.6  
Snow Depth -    
Sea Level Pressure  
Sea Level Pressure 30.06 in    
Wind  
Wind Speed 13 mph (WSW)    
Max Wind Speed 20 mph    
Max Gust Speed 25 mph    
Visibility 5 miles    
Events Fog , Snow    
T = Trace of Precipitation, MM = Missing Value Source: NWS Daily Summary

Daily Weather History Graph

Daily Weather History Graph

Search for Another Location

Airport:

Trip Planner

Search our weather history database for the weather conditions in past years. The results will help you decide how hot, cold, wet, or windy it might be!

Date:

Astronomy

Dec. 31, 2012 Rise Set
Actual Time 7:54 AM EST 5:09 PM EST
Civil Twilight 7:23 AM EST 5:40 PM EST
Nautical Twilight 6:48 AM EST 6:15 PM EST
Astronomical Twilight 6:15 AM EST 6:49 PM EST
Moon 8:41 PM EST (12/31) 9:33 AM EST (12/31)
Length of Visible Light 10h 17m
Length of Day
9h 14m
Waning Gibbous, 90% of the Moon is Illuminated
Dec 31
Waning Gibbous
Jan 4
Last Quarter
Jan 11
New
Jan 18
First Quarter
Jan 26
Full

Hourly Weather History & Observations

Time (EST) Temp. Windchill Dew Point Humidity Pressure Visibility Wind Dir Wind Speed Gust Speed Precip Events Conditions
12:53 AM 23.0 °F 12.4 °F 16.0 °F 74% 30.26 in 9.0 mi SSW 10.4 mph - N/A   Clear
1:53 AM 23.0 °F 13.1 °F 16.0 °F 74% 30.25 in 9.0 mi SSW 9.2 mph - N/A   Clear
2:53 AM 25.0 °F 13.6 °F 18.0 °F 75% 30.24 in 10.0 mi SW 12.7 mph - N/A   Clear
3:53 AM 26.1 °F 16.2 °F 18.0 °F 71% 30.20 in 10.0 mi SW 10.4 mph - N/A   Clear
4:53 AM 27.0 °F 16.1 °F 18.0 °F 69% 30.19 in 10.0 mi SW 12.7 mph - N/A   Clear
5:53 AM 27.0 °F 16.7 °F 18.0 °F 69% 30.17 in 10.0 mi SSW 11.5 mph - N/A   Clear
6:53 AM 28.0 °F 17.5 °F 18.0 °F 66% 30.15 in 10.0 mi SSW 12.7 mph - N/A   Clear
7:53 AM 28.9 °F 17.3 °F 19.0 °F 67% 30.13 in 10.0 mi SW 16.1 mph - N/A   Clear
8:53 AM 30.9 °F 20.7 °F 19.9 °F 64% 30.11 in 10.0 mi WSW 13.8 mph - N/A   Clear
9:53 AM 32.0 °F 20.1 °F 21.0 °F 64% 30.12 in 10.0 mi WSW 19.6 mph 25.3 mph N/A   Clear
10:53 AM 33.1 °F 23.0 °F 21.0 °F 61% 30.12 in 10.0 mi WSW 15.0 mph - N/A   Clear
11:53 AM 33.1 °F 22.2 °F 21.9 °F 64% 30.09 in 10.0 mi WSW 17.3 mph - N/A   Mostly Cloudy
12:53 PM 34.0 °F 23.4 °F 21.9 °F 61% 30.06 in 10.0 mi WSW 17.3 mph 25.3 mph N/A   Partly Cloudy
1:53 PM 34.0 °F 23.8 °F 23.0 °F 64% 30.02 in 10.0 mi SW 16.1 mph - N/A   Mostly Cloudy
2:53 PM 35.1 °F 24.5 °F 23.0 °F 61% 30.02 in 10.0 mi WSW 18.4 mph - N/A   Overcast
3:35 PM 33.8 °F 22.8 °F 26.6 °F 75% 30.00 in 1.8 mi WSW 18.4 mph - 0.00 in Snow Light Snow
3:42 PM 32.0 °F 21.2 °F 26.6 °F 80% 30.01 in 0.8 mi WSW 16.1 mph - 0.00 in Snow Light Snow
3:53 PM 32.0 °F 22.5 °F 28.0 °F 85% 30.03 in 0.8 mi WSW 12.7 mph - 0.00 in Snow Light Snow
4:06 PM 32.0 °F 22.1 °F 28.4 °F 87% 30.01 in 0.5 mi WSW 13.8 mph - 0.00 in Fog , Snow Snow
4:09 PM 32.0 °F 23.0 °F 28.4 °F 87% 30.01 in 0.2 mi WSW 11.5 mph - 0.01 in Fog , Snow Snow
4:29 PM 30.2 °F 20.2 °F 28.4 °F 93% 30.02 in 0.5 mi WSW 12.7 mph - 0.01 in Fog , Snow Snow
4:53 PM 32.0 °F 22.1 °F 28.9 °F 88% 30.04 in 0.5 mi WSW 13.8 mph - 0.01 in Fog , Snow Snow
5:06 PM 30.2 °F 19.8 °F 28.4 °F 93% 30.01 in 0.5 mi WSW 13.8 mph - 0.01 in Fog , Snow Snow
5:23 PM 30.2 °F 19.3 °F 28.4 °F 93% 30.01 in 1.2 mi WSW 15.0 mph - 0.01 in Snow Light Snow
5:35 PM 30.2 °F 19.8 °F 28.4 °F 93% 30.00 in 1.2 mi WSW 13.8 mph - 0.01 in Snow Light Snow
5:53 PM 30.9 °F 20.2 °F 28.0 °F 89% 30.04 in 1.2 mi WSW 15.0 mph - 0.01 in Snow Light Snow
6:09 PM 32.0 °F 22.5 °F 28.4 °F 87% 30.00 in 3.0 mi WSW 12.7 mph - 0.00 in Snow Light Snow
6:17 PM 32.0 °F 21.6 °F 28.4 °F 87% 30.00 in 2.5 mi WSW 15.0 mph - 0.00 in Snow Light Snow
6:26 PM 32.0 °F 21.2 °F 28.4 °F 87% 30.00 in 1.8 mi WSW 16.1 mph - 0.00 in Snow Light Snow
6:39 PM 32.0 °F 20.8 °F 28.4 °F 87% 30.00 in 2.5 mi WSW 17.3 mph - 0.00 in Snow Light Snow
6:49 PM 32.0 °F 22.1 °F 28.4 °F 87% 30.00 in 3.0 mi WSW 13.8 mph - 0.00 in Snow Light Snow
6:53 PM 32.0 °F 22.5 °F 28.0 °F 85% 30.03 in 3.0 mi WSW 12.7 mph - 0.00 in Snow Light Snow
7:13 PM 32.0 °F 21.6 °F 28.4 °F 87% 30.00 in 2.5 mi WSW 15.0 mph - 0.00 in Snow Light Snow
7:53 PM 32.0 °F 21.6 °F 28.9 °F 88% 30.03 in 1.8 mi WSW 15.0 mph - 0.00 in Snow Light Snow
8:11 PM 32.0 °F 22.5 °F 28.4 °F 87% 30.01 in 2.0 mi West 12.7 mph - 0.00 in Snow Light Snow
8:38 PM 32.0 °F 21.6 °F 28.4 °F 87% 30.01 in 1.8 mi West 15.0 mph - 0.00 in Snow Light Snow
8:50 PM 32.0 °F 22.1 °F 28.4 °F 87% 30.01 in 2.0 mi WSW 13.8 mph - 0.00 in Snow Light Snow
8:53 PM 32.0 °F 22.1 °F 28.9 °F 88% 30.03 in 2.0 mi WSW 13.8 mph - 0.00 in Snow Light Snow
9:20 PM 32.0 °F 22.5 °F 28.4 °F 87% 30.01 in 3.0 mi West 12.7 mph - 0.00 in Snow Light Snow
9:27 PM 32.0 °F 23.0 °F 28.4 °F 87% 30.01 in 2.5 mi West 11.5 mph - 0.00 in Snow Light Snow
9:37 PM 32.0 °F 23.6 °F 28.4 °F 87% 30.01 in 2.5 mi West 10.4 mph - 0.00 in Snow Light Snow
9:53 PM 32.0 °F 22.1 °F 28.9 °F 88% 30.03 in 2.5 mi West 13.8 mph - 0.00 in Snow Light Snow
10:08 PM 32.0 °F 23.6 °F 28.4 °F 87% 30.01 in 3.0 mi West 10.4 mph - 0.00 in Snow Light Snow
10:53 PM 33.1 °F 23.4 °F 28.0 °F 82% 30.04 in 7.0 mi West 13.8 mph - 0.00 in   Overcast
11:46 PM 33.8 °F 25.8 °F 28.4 °F 81% 30.01 in 7.0 mi West 10.4 mph - N/A   Overcast
11:53 PM 33.1 °F 26.1 °F 28.0 °F 82% 30.04 in 7.0 mi West 8.1 mph - N/A   Overcast